Starlink 30825

operational
NORAD ID: 58384 Int'l Des: 2023-178 Owner: SPXS Country: US Constellation: starlink
LEOCIRCULAR

About Starlink 30825

Description loading...

Live Position

Loading 3D Globe...

Upcoming Passes

Altitude History

Altitude vs Time

uPlot chart will show altitude changes over time

Two-Line Element Set

1 58384U 23178L 25350.35469917 .00000155 00000-0 17388-4 0 9990
2 58384 53.1631 28.0458 0001482 88.3623 271.7548 15.30175135117139
Epoch: Dec 16, 2025 • Age: 18 hours

Current Status

Altitude 484.6 km
Velocity 7.62 km/s
Sub-Earth Point -28.98°S, 102.4°E
Launch Date Nov 20, 2023
Age 2 years
Type internet

Technical Details

Classification Payload
Mass 730.00 kg
Dry Mass 700.00 kg
Total Mass 730.00 kg
Length 0.30 m
Diameter 4.10 m
Span 29.00 m
Shape Box + pan
Manufacturer SPXS
Bus Type Starlink V2M
Phase Status In Orbit
Owner/State SPXS/US

Large Constellations

Loading constellations...